Location: Northcutt
(34.7304°N, 84.4305°W)
Time: 10:28:39
(UTC+00:00)

A-11 Canister half - Pass Details

Date: 07 October 2022
Orbit: 1524 x 1685 km, 47.3° (Epoch: 30 November)

Event Time Altitude Azimuth Distance (km) Brightness Sun altitude
Rises 17:36:32 0° 204° (SSW) 4,704 12.2 49.5°
Reaches altitude 10° 17:39:51 10° 197° (SSW) 3,707 11.9 49.4°
Maximum altitude 17:48:18 40° 131° (SE) 2,105 10.7 49.2°
Drops below altitude 10° 17:56:43 10° 66° (ENE) 3,693 10.9 48.9°
Sets 17:59:58 0° 60° (ENE) 4,684 11.3 48.8°
